Overview Statistics Trail Chart Weather Telemetry Raw packets
 

This is the latest recevied weather packets stored in our database for station/object R2AKT-13. If no packets are shown the sender has not sent any weather packets the latest 10 day(s).

<< 3 4 5 6 7 8 9 >>
Time Temp. Humidity Pressure Rain* Wind** Luminosity Snow
1788655056 12.22° C 80% 976.6 hPa - 0.45 m/s, 176° - -
1788654555 12.22° C 78% 976.7 hPa - 0 m/s - -
1788654032 12.78° C 77% 976.5 hPa - 0.45 m/s, 190° - -
1788653521 13.33° C 77% 976.4 hPa - 0.45 m/s, 253° - -
1788652946 12.78° C 77% 976.4 hPa - 0.45 m/s, 283° - -
1788652456 12.78° C 78% 976.4 hPa - 0 m/s - -
1788651881 12.78° C 78% 976.3 hPa - 0 m/s - -
1788651341 12.78° C 77% 976.3 hPa - 0 m/s - -
1788650792 12.78° C 78% 976.2 hPa - 0.45 m/s, 217° - -
1788650251 12.78° C 77% 976.2 hPa - 0 m/s - -
1788649731 12.78° C 78% 976.2 hPa - 0 m/s - -
1788649186 12.78° C 77% 976.1 hPa - 0 m/s - -
1788648703 12.78° C 77% 976.2 hPa - 0 m/s - -
1788648116 12.78° C 77% 976.2 hPa - 0 m/s - -
1788647524 13.33° C 76% 976.2 hPa - 0.45 m/s, 215° - -
1788647019 13.33° C 77% 976.2 hPa - 0.45 m/s, 138° - -
1788646501 13.33° C 77% 976.2 hPa - 0.45 m/s, 244° - -
1788645941 13.33° C 76% 976.1 hPa - 0.89 m/s, 239° - -
1788645421 13.33° C 76% 976.3 hPa - 0.45 m/s, 258° - -
1788644851 13.33° C 76% 976.2 hPa - 0.45 m/s, 269° - -
1788644321 13.33° C 75% 976.2 hPa - 0.45 m/s, 135° - -
1788643756 13.33° C 75% 976.1 hPa - 0.45 m/s, 254° - -
1788643276 13.33° C 74% 976 hPa - 0.45 m/s, 124° - -
1788642751 13.33° C 74% 975.9 hPa - 0.89 m/s, 190° - -
1788642256 13.33° C 74% 976.1 hPa - 0.45 m/s, 204° - -

* Rain since midnight (hover to see other rain measurements)
** Current wind speed in m/s (hover to see current wind gust speed)